FW5242 Weather Reports


time (UTC)temp
C
wind
direction
speed
KPH
gust
KPH
rain 1hr
cm
rain 24hr
cm
rain mn
cm
humidity
%
barometer
mb
20260506140056 13 360 1.6 8.0 0.23 0.28 0.28 94 1007.5
20260506134553 13 360 0.0 1.6 0.18 0.20 0.20 93 1008.0
20260506133053 13 360 0.0 1.6 0.15 0.15 0.15 93 1008.2
20260506131555 13 360 0.0 0.0 0.13 0.13 0.13 93 1008.6
20260506130059 13 360 0.0 3.2 0.05 0.05 0.05 93 1008.8
20260506124551 13 360 0.0 3.2 0.03 0.03 0.03 92 1008.6
20260506123051 13 360 0.0 1.6 0.00 0.00 0.00 92 1008.0
20260506121553 13 360 0.0 1.6 0.00 0.00 0.00 92 1007.9
20260506120049 13 360 0.0 1.6 0.00 0.00 0.00 91 1008.0
20260506114550 13 360 0.0 1.6 0.00 0.00 0.00 91 1008.1
20260506113046 12 360 0.0 1.6 0.00 0.00 0.00 90 1008.0
20260506111546 12 360 0.0 1.6 0.00 0.00 0.00 89 1007.9
20260506110045 12 360 0.0 1.6 0.00 0.00 0.00 90 1008.0
20260506104543 12 360 0.0 1.6 0.00 0.00 0.00 89 1007.8
20260506103051 12 360 0.0 1.6 0.00 0.00 0.00 89 1007.2
20260506101542 12 360 0.0 1.6 0.00 0.00 0.00 88 1007.5
20260506100042 12 360 0.0 1.6 0.00 0.00 0.00 87 1007.3
20260506094541 12 360 0.0 0.0 0.00 0.00 0.00 87 1007.6
20260506093040 12 360 0.0 1.6 0.00 0.00 0.00 87 1007.2
20260506091539 12 360 0.0 1.6 0.00 0.00 0.00 87 1007.2
20260506090046 12 360 0.0 3.2 0.00 0.00 0.00 87 1007.5
20260506084545 12 360 0.0 3.2 0.00 0.00 0.00 88 1007.6
20260506083035 12 360 0.0 1.6 0.00 0.00 0.00 88 1007.8
20260506081539 12 360 0.0 3.2 0.00 0.00 0.00 89 1007.6
20260506073032 12 360 0.0 3.2 0.00 0.00 0.00 90 1007.6
20260506071530 12 360 0.0 1.6 0.00 0.00 0.00 90 1007.8
20260506061543 11 360 0.0 1.6 0.00 0.00 0.00 88 1008.4
20260506044520 12 360 0.0 3.2 0.00 0.00 0.00 86 1008.7
20260506043026 12 360 0.0 1.6 0.00 0.00 0.00 85 1008.7
20260506041511 12 360 0.0 1.6 0.00 0.00 0.00 84 1008.9
20260506040009 12 360 0.0 3.2 0.00 0.00 0.00 85 1009.0
20260506034508 12 360 0.0 1.6 0.00 0.00 0.00 84 1009.0
20260506033011 13 360 0.0 3.2 0.00 0.00 0.00 82 1009.1
20260506031507 13 360 0.0 1.6 0.00 0.00 0.00 82 1009.0
20260506030006 13 360 0.0 3.2 0.00 0.00 0.00 81 1008.9
20260506024517 14 360 0.0 1.6 0.00 0.00 0.00 81 1008.9
20260506023005 15 360 0.0 1.6 0.00 0.00 0.00 80 1009.0
20260506021504 15 360 0.0 1.6 0.00 0.00 0.00 79 1008.7
20260506020006 16 360 0.0 3.2 0.00 0.00 0.00 78 1008.8
20260506014502 16 360 0.0 3.2 0.00 0.00 0.00 77 1008.8
20260506013002 16 360 0.0 3.2 0.00 0.00 0.00 76 1008.7
20260506011504 16 360 0.0 3.2 0.00 0.00 0.00 74 1008.6
20260506010002 17 360 0.0 1.6 0.00 0.00 0.00 71 1008.3
20260506004505 18 212 0.0 3.2 0.00 0.00 0.00 67 1008.2
20260506003001 18 207 0.0 3.2 0.00 0.00 0.00 66 1008.0
20260506001603 19 205 0.0 3.2 0.00 0.00 0.00 65 1008.1
20260506001502 19 205 0.0 3.2 0.00 0.00 0.00 65 1008.1
20260506000100 20 179 0.0 3.2 0.00 0.00 0.00 61 1008.1
20260505234608 21 178 0.0 3.2 0.00 0.00 0.00 59 1007.9
20260505233059 22 178 0.0 1.6 0.00 0.00 0.00 51 1007.8
20260505231607 22 178 0.0 1.6 0.00 0.00 0.00 50 1007.7
20260505230058 23 192 0.0 4.8 0.00 0.00 0.00 47 1007.6
20260505224557 23 148 1.6 6.4 0.00 0.00 0.00 45 1007.6
20260505223105 23 175 1.6 8.0 0.00 0.00 0.00 45 1007.5
20260505221600 23 192 3.2 11.3 0.00 0.00 0.00 46 1007.3
20260505220056 23 182 6.4 17.7 0.00 0.00 0.00 45 1007.3
20260505214615 23 159 4.8 14.5 0.00 0.00 0.00 45 1007.2
20260505213102 24 211 6.4 14.5 0.00 0.00 0.00 43 1007.0
20260505211605 25 148 3.2 11.3 0.00 0.00 0.00 43 1007.0
20260505210054 25 163 6.4 22.5 0.00 0.00 0.00 43 1007.1
20260505204553 26 155 8.0 19.3 0.00 0.00 0.00 40 1006.6
20260505203054 25 196 6.4 19.3 0.00 0.00 0.00 41 1006.7
20260505201555 24 268 8.0 25.7 0.00 0.00 0.00 41 1006.6
20260505200059 25 230 3.2 20.9 0.00 0.00 0.00 41 1006.5
20260505194555 25 123 11.3 25.7 0.00 0.00 0.00 40 1006.3
20260505193050 25 234 12.9 27.4 0.00 0.00 0.00 40 1006.4
20260505191549 26 255 9.7 32.2 0.00 0.00 0.00 39 1006.5
20260505190050 26 181 8.0 27.4 0.00 0.00 0.00 40 1006.9
20260505184544 25 162 9.7 20.9 0.00 0.00 0.00 41 1007.3
20260505183054 25 259 6.4 29.0 0.00 0.00 0.00 42 1007.5
20260505181546 26 213 6.4 24.1 0.00 0.00 0.00 41 1007.5
20260505180043 25 169 4.8 24.1 0.00 0.00 0.00 42 1007.9
20260505174545 25 250 6.4 16.1 0.00 0.00 0.00 41 1008.2
20260505173037 25 205 8.0 19.3 0.00 0.00 0.00 41 1008.1
20260505171534 25 161 8.0 16.1 0.00 0.00 0.00 43 1007.8
20260505170032 25 232 3.2 20.9 0.00 0.00 0.00 47 1007.9
20260505164528 24 192 9.7 24.1 0.00 0.00 0.00 46 1008.2
20260505163025 24 194 8.0 16.1 0.00 0.00 0.00 47 1008.7
20260505161523 23 61 9.7 24.1 0.00 0.00 0.00 48 1008.7
20260505153013 23 138 6.4 33.8 0.00 0.00 0.00 50 1009.1
20260505151509 22 236 9.7 17.7 0.00 0.00 0.00 52 1009.2